[[{"header":{"parameterUnit":"m.s-1","parameterCategory":1,"la1":30.2992,"la2":30.254,"lo1":-89.0895,"lo2":-89.0443,"dy":0.0025,"dx":0.0025,"nx":19,"ny":19,"refTime":"2026-05-22T09:00:00:Z","depth":0,"parameterNumber":2,"parameterNumberName":"U-component_of_WINDS"},"data":[0,0,0,0.2519,0.2519,0.2539,0.2539,0.2566,0.2566,0,0,0,0,0,0,0,0,0,0,0,0.2514,0.2514,0.2519,0.2519,0.2539,0.2539,0.2566,0.2566,0,0,0,0,0,0,0,0,0,0,0,0.2514,0.2514,0.2514,0.252,0.2539,0.2539,0.2565,0.255,0,0,0,0,0,0,0,0,0,0,0.2531,0.2527,0.2514,0.2514,0.252,0.2539,0.2539,0.2549,0.2551,0.2557,0,0.2563,0,0.2565,0.2568,0.2568,0,0,0,0.2519,0.2525,0.253,0.2514,0.252,0.2539,0.253,0.255,0.2552,0.256,0.2563,0.2564,0.2565,0.2568,0.2568,0.2608,0.2608,0,0,0.2518,0.2518,0.2529,0.2531,0.2529,0.2529,0.2531,0.2551,0.2555,0.2563,0.2565,0.2566,0.2568,0.2568,0.2607,0.2608,0,0,0,0.2515,0.2517,0.2521,0.253,0.2534,0.253,0.2531,0.2554,0.2556,0.2565,0.2566,0.2568,0.2569,0.2607,0.2607,0.2619,0,0,0,0.2514,0.2515,0.2521,0.2521,0.2534,0.2544,0.2534,0.2554,0.2557,0.2566,0.2568,0.2569,0.2607,0.2607,0.2619,0.2625,0,0,0,0.2512,0.2515,0.2518,0.2521,0.2529,0.2544,0.2547,0.2555,0.2557,0.2568,0.2569,0.2607,0.2607,0.2618,0.2624,0.2637,0,0,0,0.251,0.2527,0.2518,0.2538,0.2529,0.2551,0.2547,0.2563,0.2573,0.2568,0.2607,0.2607,0.2618,0.2623,0.2636,0.2648,0.2653,0,0,0.2531,0.2529,0.2541,0.2534,0.2558,0.2548,0.2574,0.2582,0.2583,0.2599,0.26,0.2619,0.2624,0.2636,0.2679,0.2683,0,0,0,0.2548,0.2557,0.2563,0.2573,0.2581,0.2589,0.2594,0.2598,0.2612,0.2591,0.2626,0.2629,0.2637,0.2643,0.2646,0.2653,0.261,0.261,0.261,0.2578,0.2579,0.2599,0.2603,0.2613,0.262,0.2628,0.2634,0.2631,0.2639,0.2644,0.267,0.2677,0.268,0.2687,0.265,0.265,0.265,0.265,0.261,0.2623,0.2621,0.2639,0.2641,0.2656,0.2664,0.2661,0.2676,0.2666,0.2673,0.2662,0.2684,0.2691,0.2651,0.2651,0.2651,0.2651,0.2651,0.2631,0.2637,0.2642,0.2659,0.2672,0.2676,0.2691,0.2691,0.2691,0.2698,0.2704,0.2704,0.2705,0.2701,0.2701,0.2701,0.2701,0.2701,0.2701,0.265,0.2656,0.2669,0.2681,0.2689,0.2699,0.2707,0.2715,0.2724,0.2722,0.2722,0.272,0.2686,0.2678,0.2703,0.2702,0.2702,0.2702,0.2702,0.2684,0.2677,0.2697,0.2706,0.2721,0.2735,0.2735,0.2752,0.2758,0.2766,0.2762,0.2737,0.2734,0.2732,0.2725,0.2761,0.2761,0.2761,0.2761,0.2702,0.2701,0.2724,0.2737,0.275,0.2754,0.2778,0.2785,0.2791,0.2795,0.279,0.2781,0.2779,0.2778,0.2775,0.2769,0.2814,0.2814,0.2814,0.2724,0.2725,0.2745,0.2752,0.2764,0.2775,0.2799,0.2815,0.282,0.2817,0.2799,0.2797,0.2783,0.2778,0.2775,0.2769,0.2758,0,0]},{"header":{"parameterUnit":"m.s-1","parameterCategory":1,"la1":30.2992,"la2":30.254,"lo1":-89.0895,"lo2":-89.0443,"dy":0.0025,"dx":0.0025,"nx":19,"ny":19,"refTime":"2026-05-22T09:00:00:Z","depth":0,"parameterNumber":3,"parameterNumberName":"V-component_of_WINDS"},"data":[0,0,0,0.7455,0.7457,0.7577,0.7577,0.7713,0.7715,0,0,0,0,0,0,0,0,0,0,0,0.7408,0.7408,0.7455,0.7457,0.7577,0.7577,0.7713,0.7715,0,0,0,0,0,0,0,0,0,0,0,0.7408,0.7408,0.7409,0.7458,0.7577,0.7577,0.7713,0.7629,0,0,0,0,0,0,0,0,0,0,0.7516,0.7461,0.7408,0.7409,0.7458,0.7576,0.7577,0.7625,0.7634,0.7652,0,0.7662,0,0.769,0.7722,0.7723,0,0,0,0.7467,0.7453,0.7496,0.7409,0.7459,0.7576,0.7525,0.7631,0.7641,0.7663,0.7665,0.767,0.7693,0.7723,0.7724,0.7787,0.7787,0,0,0.746,0.7424,0.7489,0.7502,0.748,0.7521,0.7529,0.7637,0.7637,0.7665,0.7674,0.7695,0.7724,0.7725,0.7787,0.7787,0,0,0,0.7435,0.7418,0.7459,0.7496,0.7518,0.7525,0.7533,0.7632,0.7648,0.7675,0.7696,0.7725,0.7726,0.7788,0.7787,0.7744,0,0,0,0.7431,0.7404,0.7455,0.7434,0.7516,0.7576,0.7525,0.764,0.7654,0.7696,0.7725,0.7727,0.7788,0.7787,0.7745,0.7729,0,0,0,0.7404,0.7401,0.7414,0.7432,0.7482,0.7575,0.7598,0.7644,0.7666,0.7723,0.7728,0.7788,0.7788,0.7747,0.7732,0.7734,0,0,0,0.7365,0.7375,0.7413,0.7432,0.7481,0.7547,0.7598,0.765,0.7693,0.7725,0.7788,0.7787,0.7747,0.7733,0.7735,0.7729,0.7723,0,0,0.7358,0.7373,0.7388,0.7425,0.7474,0.7532,0.7576,0.7652,0.7692,0.7753,0.7756,0.7745,0.7732,0.7734,0.7703,0.7698,0,0,0,0.7373,0.7383,0.7404,0.7442,0.7499,0.7546,0.7618,0.7645,0.7699,0.7715,0.7748,0.7742,0.7744,0.7743,0.7739,0.7743,0.7785,0.7785,0.7785,0.7311,0.7359,0.7386,0.7448,0.7485,0.7558,0.7592,0.7643,0.7683,0.7689,0.7708,0.7683,0.768,0.7677,0.7681,0.7709,0.7709,0.7709,0.7709,0.7305,0.7325,0.7376,0.742,0.7471,0.7509,0.758,0.7606,0.765,0.7673,0.7679,0.7699,0.7669,0.7676,0.7706,0.7706,0.7707,0.7707,0.7707,0.7269,0.7287,0.7319,0.7378,0.7418,0.7482,0.752,0.7567,0.7611,0.7616,0.764,0.764,0.7646,0.7624,0.7624,0.7624,0.7624,0.7623,0.7623,0.7218,0.7256,0.7281,0.734,0.737,0.7415,0.7488,0.7519,0.7566,0.7596,0.7597,0.7635,0.7657,0.7661,0.7622,0.7622,0.7623,0.7623,0.7623,0.7192,0.7205,0.7244,0.7274,0.7346,0.7382,0.744,0.7499,0.7532,0.7549,0.7587,0.7596,0.7616,0.7619,0.7623,0.7577,0.7577,0.7577,0.7577,0.7161,0.7175,0.7225,0.7268,0.7317,0.7373,0.7416,0.7472,0.7533,0.7556,0.757,0.7579,0.758,0.7599,0.7604,0.7608,0.7558,0.7558,0.7558,0.7147,0.7167,0.7195,0.7252,0.7312,0.7362,0.7404,0.7453,0.7525,0.7558,0.7575,0.7576,0.7591,0.7593,0.7627,0.7632,0.7641,0,0]}]]